Sanger
DateTemperatureDew Point
09/03 - 06:45 PM77.4°64.1°
09/03 - 06:30 PM79.4°62.6°
09/03 - 06:15 PM81.1°61.2°
09/03 - 06:00 PM82.2°59.8°
09/03 - 05:45 PM83.6°58.7°
09/03 - 05:30 PM84.4°58.3°
09/03 - 05:15 PM85.6°58.5°
09/03 - 05:00 PM85.5°57.3°
09/03 - 04:45 PM85.7°57.1°
09/03 - 04:30 PM86.5°56.9°
09/03 - 04:15 PM87.9°57.9°
09/03 - 04:00 PM88.0°56.2°
09/03 - 03:45 PM87.7°56.8°
09/03 - 03:30 PM87.5°56.5°
09/03 - 03:15 PM86.9°56.0°
09/03 - 03:00 PM87.5°57.5°
09/03 - 02:45 PM86.3°57.0°
09/03 - 02:30 PM86.4°56.2°
09/03 - 02:15 PM85.7°57.1°
09/03 - 02:00 PM85.0°56.1°
09/03 - 01:45 PM85.1°56.5°
09/03 - 01:30 PM84.8°57.4°
09/03 - 01:15 PM83.1°57.0°
09/03 - 01:00 PM82.2°56.2°
09/03 - 12:45 PM82.3°56.6°
09/03 - 12:30 PM80.9°56.5°
09/03 - 12:15 PM80.1°56.6°
09/03 - 12:00 PM80.1°56.8°
09/03 - 11:45 AM79.3°56.7°
09/03 - 11:30 AM77.9°56.0°
09/03 - 11:15 AM77.1°55.9°
09/03 - 11:00 AM76.1°55.7°
09/03 - 10:45 AM75.3°55.4°
09/03 - 10:30 AM73.9°55.3°
09/03 - 10:15 AM73.1°55.3°
09/03 - 10:00 AM71.9°55.3°
09/03 - 09:45 AM70.8°55.7°
09/03 - 09:30 AM69.0°55.6°
09/03 - 09:15 AM67.9°55.6°
09/03 - 09:00 AM66.7°55.6°
09/03 - 08:45 AM65.6°55.3°
09/03 - 08:30 AM64.6°55.1°
09/03 - 08:15 AM63.6°55.2°
09/03 - 08:00 AM62.4°55.0°
09/03 - 07:45 AM61.2°55.2°
09/03 - 07:30 AM60.1°55.2°
09/03 - 07:15 AM58.9°55.1°
09/03 - 07:00 AM57.7°54.7°
09/03 - 06:45 AM56.9°54.3°
09/03 - 06:30 AM56.7°54.0°
09/03 - 06:15 AM56.9°54.0°
09/03 - 06:00 AM56.7°54.0°
09/03 - 05:45 AM56.5°53.4°
09/03 - 05:30 AM57.5°53.7°
09/03 - 05:15 AM58.1°54.0°
09/03 - 05:00 AM58.6°54.1°
09/03 - 04:45 AM59.1°54.2°
09/03 - 04:30 AM59.6°54.2°
09/03 - 04:15 AM59.9°54.3°
09/03 - 04:00 AM60.2°54.4°
09/03 - 03:45 AM60.6°54.5°
09/03 - 03:30 AM60.9°54.4°
09/03 - 03:15 AM60.9°54.2°
09/03 - 03:00 AM61.2°54.4°
09/03 - 02:45 AM61.8°54.5°
09/03 - 02:30 AM62.3°54.6°
09/03 - 02:15 AM62.5°54.7°
09/03 - 02:00 AM62.7°54.8°
09/03 - 01:45 AM62.7°54.6°
09/03 - 01:30 AM63.2°54.7°
09/03 - 01:15 AM63.6°54.6°
09/03 - 01:00 AM64.0°54.7°
09/03 - 12:45 AM64.3°54.6°
09/03 - 12:30 AM64.6°54.5°
09/03 - 12:15 AM64.7°54.8°
09/03 - 12:00 AM65.3°54.7°
09/02 - 11:45 PM65.8°54.7°
09/02 - 11:30 PM66.9°55.0°
09/02 - 11:15 PM67.5°55.2°
09/02 - 11:00 PM68.1°55.3°
09/02 - 10:45 PM68.6°55.4°
09/02 - 10:30 PM69.0°55.6°
09/02 - 10:15 PM68.9°55.8°
09/02 - 10:00 PM65.7°55.9°
09/02 - 09:45 PM62.2°57.0°
09/02 - 09:30 PM62.7°57.0°
09/02 - 09:15 PM63.9°57.0°
09/02 - 09:00 PM65.7°56.8°
09/02 - 08:45 PM68.1°55.7°
09/02 - 08:30 PM69.0°55.3°
09/02 - 08:15 PM68.6°55.7°
09/02 - 08:00 PM68.0°56.0°
09/02 - 07:45 PM68.2°57.4°
09/02 - 07:30 PM69.7°58.2°
09/02 - 07:15 PM72.1°57.4°
09/02 - 07:00 PM75.4°56.0°
09/02 - 06:45 PM77.4°54.7°
09/02 - 06:30 PM78.8°53.7°
09/02 - 06:15 PM80.1°52.8°
09/02 - 06:00 PM81.1°51.3°
09/02 - 05:45 PM81.7°52.4°
09/02 - 05:30 PM82.4°53.5°
09/02 - 05:15 PM83.0°53.6°
09/02 - 05:00 PM82.7°53.3°
09/02 - 04:45 PM83.4°53.5°
09/02 - 04:30 PM83.9°54.0°
09/02 - 04:15 PM84.0°54.0°
09/02 - 04:00 PM84.4°53.4°
09/02 - 03:45 PM84.6°54.4°
09/02 - 03:30 PM84.5°54.5°
09/02 - 03:15 PM84.1°55.0°
09/02 - 03:00 PM84.3°54.8°
09/02 - 02:45 PM83.7°55.1°
09/02 - 02:30 PM83.2°54.6°
09/02 - 02:15 PM82.9°54.9°
09/02 - 02:00 PM82.2°55.3°
09/02 - 01:45 PM81.7°54.7°
09/02 - 01:30 PM80.7°54.6°
09/02 - 01:15 PM80.0°54.4°
09/02 - 01:00 PM79.6°55.1°
09/02 - 12:45 PM78.8°54.8°
09/02 - 12:30 PM78.7°54.9°
09/02 - 12:15 PM77.9°54.8°
09/02 - 12:00 PM76.8°54.4°
09/02 - 11:45 AM75.7°54.5°
09/02 - 11:30 AM75.0°54.0°
09/02 - 11:15 AM74.2°54.0°
09/02 - 11:00 AM73.8°54.2°
09/02 - 10:45 AM72.7°54.3°
09/02 - 10:30 AM71.4°53.9°
09/02 - 10:15 AM70.9°54.3°
09/02 - 10:00 AM69.6°54.0°
09/02 - 09:45 AM68.2°54.0°
09/02 - 09:30 AM67.3°54.1°
09/02 - 09:15 AM66.1°53.9°
09/02 - 09:00 AM64.5°53.4°
09/02 - 08:45 AM63.1°53.5°
09/02 - 08:30 AM61.4°53.5°
09/02 - 08:15 AM60.5°53.5°
09/02 - 08:00 AM59.1°53.3°
09/02 - 07:45 AM57.4°54.2°
09/02 - 07:30 AM55.7°53.9°
09/02 - 07:15 AM54.3°53.1°
09/02 - 07:00 AM52.9°51.7°
09/02 - 06:45 AM51.8°50.6°
09/02 - 06:30 AM51.6°50.3°
09/02 - 06:15 AM51.4°50.0°
09/02 - 06:00 AM51.6°50.0°
09/02 - 05:45 AM51.9°50.0°
09/02 - 05:30 AM52.1°49.8°
09/02 - 05:15 AM52.8°49.9°
09/02 - 05:00 AM53.7°50.2°
09/02 - 04:45 AM55.3°51.0°
09/02 - 04:30 AM55.8°51.1°
09/02 - 04:15 AM56.1°51.0°
09/02 - 04:00 AM56.4°50.9°
09/02 - 03:45 AM56.6°50.8°
09/02 - 03:30 AM57.2°50.9°
09/02 - 03:15 AM57.7°50.9°
09/02 - 03:00 AM58.3°50.9°
09/02 - 02:45 AM58.3°50.6°
09/02 - 02:30 AM58.7°50.8°
09/02 - 02:15 AM59.3°50.8°
09/02 - 02:00 AM60.3°51.1°
09/02 - 01:45 AM60.6°51.0°
09/02 - 01:30 AM61.2°51.2°
09/02 - 01:15 AM61.3°51.0°
09/02 - 01:00 AM61.8°51.3°
09/02 - 12:45 AM62.1°51.3°
09/02 - 12:30 AM62.5°51.3°
09/02 - 12:15 AM62.9°51.3°
09/02 - 12:00 AM63.5°51.4°
09/01 - 11:45 PM64.0°51.3°
09/01 - 11:30 PM64.6°51.5°
09/01 - 11:15 PM65.0°51.5°
09/01 - 11:00 PM65.3°51.4°
09/01 - 10:45 PM65.7°51.0°
09/01 - 10:30 PM66.5°50.6°
09/01 - 10:15 PM67.3°50.4°
09/01 - 10:00 PM67.8°50.8°
09/01 - 09:45 PM68.4°51.1°
09/01 - 09:30 PM69.0°50.8°
09/01 - 09:15 PM69.4°50.9°
09/01 - 09:00 PM68.9°51.7°
09/01 - 08:45 PM69.5°51.9°
09/01 - 08:30 PM69.9°52.3°
09/01 - 08:15 PM70.7°52.3°
09/01 - 08:00 PM70.6°52.6°
09/01 - 07:45 PM71.4°53.1°
09/01 - 07:30 PM72.2°53.5°